Regional Weather Roundup
Issued by NWS

Home | Current Version | Previous Version | Graphics & Text | Print | Product List | Glossary On
Versions: 1 2 3 4 5 6 7 8 9 10 11 12 13 14 15 16 17 18 19 20 21 22 23 24 25 26 27 28 29 30 31 32 33 34 35 36 37 38 39 40 41 42 43 44 45 46 47 48 49 50
000
ASUS43 KMKX 291800
RWRWI

WISCONSIN REGIONAL WEATHER ROUNDUP
NATIONAL WEATHER SERVICE MILWAUKEE/SULLIVAN WI
1200 PM CST THU JAN 29 2015

NOTE: "FAIR" INDICATES FEW OR NO CLOUDS BELOW 12,000 FEET WITH NO
SIGNIFICANT WEATHER AND/OR OBSTRUCTIONS TO VISIBILITY.

WIZ001-002-006>008-014>016-023>028-291900-
NORTHWEST WISCONSIN

CITY           SKY/WX    TMP DP  RH WIND       PRES   REMARKS
SUPERIOR ARPT  CLOUDY    27  19  72 NW18      30.20R WCI  13
ASHLAND        CLOUDY    28  19  69 NW18G24   30.13R WCI  15
6HR MIN TEMP:  28; 6HR MAX TEMP:  30;

HAYWARD        CLOUDY    29  20  69 NW12G20   30.10S WCI  19
6HR MIN TEMP:  29; 6HR MAX TEMP:  30;

SIREN          CLOUDY    29  21  70 NW16G24   30.17R WCI  17
CUMBERLAND     CLOUDY    30  21  69 NW17G25   30.11S WCI  18
RICE LAKE      CLOUDY    32  22  67 W16       30.13S WCI  21
CHETEK         CLOUDY    32  22  68 NW7G17    30.11R WCI  25
LADYSMITH      CLOUDY    31  22  69 NW18      30.08R WCI  19
EAU CLAIRE     NOT AVBL
MENOMONIE      CLOUDY    34  24  68 W17G23    30.13R WCI  23
NEW RICHMOND   CLOUDY    31  23  71 NW17G28   30.17S WCI  20
OSCEOLA        CLOUDY    32  23  69 NW16      30.21S WCI  21
$$

WIZ003>005-009-010-017-018-291900-
NORTH CENTRAL WISCONSIN

CITY           SKY/WX    TMP DP  RH WIND       PRES   REMARKS
MANITOWISH WTR CLOUDY    25  20  81 NW24G31   29.99R WCI  10
ARBOR VITAE    CLOUDY    29  23  78 N17G28    29.97R WCI  17
WOODRUFF       CLOUDY    29  23  78 N17G28    29.97R WCI  17
RHINELANDER    CLOUDY    28  20  71 NW13G24   29.95R WCI  17
6HR MIN TEMP:  26; 6HR MAX TEMP:  28;

EAGLE RIVER    CLOUDY    26  21  79 NW16G28   29.94R WCI  14
LAND O LAKES   CLOUDY    26  22  85 NW15G23   29.95R WCI  14
PHILLIPS       CLOUDY    29  20  68 NW14G25   30.01R WCI  18
TOMAHAWK       CLOUDY    29  22  74 NW14G22   29.98R WCI  19
MEDFORD        CLOUDY    30  22  73 NW18      30.00S WCI  18
MERRILL        CLOUDY    31  24  74 NW15G24   29.97R WCI  20
$$

WIZ029-030-035-036-043>047-291900-
CENTRAL WISCONSIN

CITY           SKY/WX    TMP DP  RH WIND       PRES   REMARKS
WAUSAU         CLOUDY    31  22  69 NW14G24   29.96R WCI  21
6HR MIN TEMP:  27; 6HR MAX TEMP:  31;

MOSINEE        CLOUDY    30  25  80 NW20G29   29.99R WCI  18
MARSHFIELD     CLOUDY    32  24  72 NW22G30   30.01R WCI  19
6HR MIN TEMP:  28; 6HR MAX TEMP:  32;

STEVENS POINT  CLOUDY    30  23  74 NW16G24   29.98R WCI  19
WAUPACA        CLOUDY    35  24  66 NW17G26   29.96S WCI  24
WAUTOMA        NOT AVBL
WISC RAPIDS    CLOUDY    32  22  66 NW16G26   30.01R WCI  21
6HR MIN TEMP:  29; 6HR MAX TEMP:  32;

CAMP DOUGLAS   NOT AVBL
$$

WIZ011>013-019>022-031-037>040-048>050-291900-
NORTHEAST WISCONSIN

CITY           SKY/WX    TMP DP  RH WIND       PRES   REMARKS
ANTIGO         CLOUDY    28  23  80 NW17G28   29.93S WCI  16
SHAWANO        CLOUDY    34  25  68 NW15      29.94S WCI  25
OCONTO         CLOUDY    32  25  74 MISG      29.91S
STURGEON BAY   CLOUDY    30  25  80 NW17G23   29.90S WCI  18
6HR MIN TEMP:  28; 6HR MAX TEMP:  30;

GREEN BAY      CLOUDY    33  25  72 NW15      29.92R WCI  23
6HR MIN TEMP:  30; 6HR MAX TEMP:  33;

MANITOWOC      NOT AVBL
APPLETON       CLOUDY    32  23  69 N20G28    29.93R WCI  20
CLINTONVILLE   CLOUDY    32  25  74 N15G22    29.94S WCI  22
OSHKOSH        CLOUDY    33  24  69 NW20G30   29.93R WCI  21
6HR MIN TEMP:  30; 6HR MAX TEMP:  33; 6HR PCP: TRACE;

$$

WIZ032>034-041-042-053>061-291900-
SOUTHWEST WISCONSIN

CITY           SKY/WX    TMP DP  RH WIND       PRES   REMARKS
LA CROSSE      CLOUDY    36  26  67 NW20      30.10R WCI  25
6HR MIN TEMP:  33; 6HR MAX TEMP:  36; 6HR PCP: TRACE;

SPARTA         CLOUDY    34  25  71 NW13G23   30.08R WCI  25
VIROQUA        CLOUDY    32  27  82 NW22G29   30.04R WCI  20
BOSCOBEL       CLOUDY    37  26  64 NW16G24   30.08R WCI  28
6HR MIN TEMP:  34; 6HR MAX TEMP:  37;

PRAIRIE DU CHI CLOUDY    35  26  70 NW21G26   30.09R WCI  24
PLATTEVILLE    CLOUDY    34  29  82 W15       30.03R WCI  25
$$

WIZ056-057-062-063-064-067-068-291900-
SOUTH CENTRAL WISCONSIN

CITY           SKY/WX    TMP DP  RH WIND       PRES   REMARKS
REEDSBURG      CLOUDY    32  26  77 N17G25    30.01R WCI  21
BARABOO/DELLS  CLOUDY    32  25  76 NW15G24   30.00R WCI  22
LONE ROCK      NOT AVBL
MINERAL POINT  CLOUDY    34  30  86 NW15G24   30.01R WCI  24
MADISON        CLOUDY    33  26  75 NW17G29   29.98R WCI  22
6HR MIN TEMP:  30; 6HR MAX TEMP:  33; 6HR PCP:  0.01;

MIDDLETON      CLOUDY    34  28  78 NW20G26   29.99R WCI  23
WATERTOWN      CLOUDY    32  27  83 NW17G23   29.94R WCI  21
MONROE         CLOUDY    32  30  93 NW12G25   29.98R WCI  23
JANESVILLE     CLOUDY    36  27  69 N15G26    29.97R WCI  26
$$

WIZ051-052-058>065-066-070>072-291900-
SOUTHEAST WISCONSIN

CITY           SKY/WX    TMP DP  RH WIND       PRES   REMARKS
MILWAUKEE      CLOUDY    33  25  72 NW14G29   29.92R WCI  23
6HR MIN TEMP:  31; 6HR MAX TEMP:  34; 6HR PCP: TRACE;

WAUKESHA       CLOUDY    30  25  80 NW14G24   29.93R WCI  20
MILWAUKEE/TIMM CLOUDY    32  25  74 NW17      29.92R WCI  21
RACINE         CLOUDY    34  25  69 NW16G25   29.93R WCI  24
6HR MIN TEMP:  32; 6HR MAX TEMP:  34; 6HR PCP: TRACE;

BURLINGTON     CLOUDY    31  25  77 NW17G30   29.93R WCI  20
KENOSHA        CLOUDY    33  26  75 NW15G21   29.92R WCI  23
6HR MIN TEMP:  32; 6HR MAX TEMP:  33; 6HR PCP: TRACE;

FOND DU LAC    CLOUDY    33  25  72 NW21      29.93R WCI  21
6HR MIN TEMP:  30; 6HR MAX TEMP:  33; 6HR PCP: TRACE;

SHEBOYGAN      CLOUDY    33  26  75 NW15G25   29.90R WCI  23
6HR MIN TEMP:  30; 6HR MAX TEMP:  33; 6HR PCP: TRACE;

WEST BEND      CLOUDY    32  27  80 NW14G24   29.91R WCI  22
JUNEAU         CLOUDY    32  26  80 NW14G25   29.95R WCI  22
$$

LSZ147-162-291900-
LAKE SUPERIOR

STATION/POSITION TIME  TEMP    WIND        PRES    WAVE
                       AIR SEA DIR/SP/G            HT/PER
                 (UTC) (F)     (DEG/KT/KT) (MB)    (FT/S)
DEVILS ISLAND    1700   26     320/ 24/ 29 1020.3R
PORT WING        1700   28     320/ 20/ 25 1021.0R
SAXON HARBOR     1700   29     320/ 18/ 23 1019.0R
$$

LMZ867-665-643>646-291900-
LAKE MICHIGAN

STATION/POSITION TIME  TEMP    WIND        PRES    WAVE
                       AIR SEA DIR/SP/G            HT/PER
                 (UTC) (F)     (DEG/KT/KT) (MB)    (FT/S)
NORTHPORT PIER   1701   31     310/ 17/ 22 1011.5R
SISTER BAY       1613   30     340/ 16/ 19   N/A
KEWAUNEE LAKESHO 1700   32     330/ 10/ 15 1011.3R
SHEBOYGAN LAKESH 1700   32     330/ 19/ 23 1013.2R
PORT WASHINGTON  1740   33     320/ 13/ 20 1013.5R
MILWAUKEE LAKESH 1700   33     330/ 14/ 20   N/A
KENOSHA   LAKESH 1700   33     330/ 16/ 26 1012.5R
$$

TC  - TEMPERATURE IN CELSIUS
VSB - VISIBILITY IN STATUTE MILES
WCI - WIND CHILL INDEX
HX  - HEAT INDEX



USA.gov is the U.S. government's official web portal to all federal, state and local government web resources and services.